Location: Cheching
(60.0667°N, 164.2167°W)
Time: 00:22:46
(UTC+00:00)

DX 1 - Pass Details

Date: 01 February 2021
Orbit: 618 x 631 km, 98.5° (Epoch: 07 March)

Event Time Altitude Azimuth Distance (km) Brightness Sun altitude
Rises 16:49:17 0° 173° (S) 2,904 ? -17.2°
Reaches altitude 10° 16:51:30 10° 178° (S) 1,999 ? -16.9°
Maximum altitude 16:55:47 57° 257° (WSW) 743 ? -16.4°
Drops below altitude 10° 17:00:05 10° 337° (NNW) 2,006 ? -15.9°
Enters shadow 17:01:15 - 339° (NNW) 2,473 ? -15.7°
